CZ-6A DEB, 54988

Orbit data source: Space-Track

CZ-6A DEB, 54988 is space debris in SSO originally from a launch on Fri, 11 Nov 2022 UTC launched from the Taiyaun Space Center, China (TSC). Debris objects in space refer to the collection of defunct objects orbiting the Earth. Examples of debris include non-operational satellites, rocket bodies, and fragments generated from explosions, collisions, or faulty payload assembly.

Loading next visibility...
Identifier
54988, 2022-151UD
Orbit
SSO
Country
Flag of CNCN / PRC
Related business
Manufacturer
SAST
Mission
Spacecraft
Bus & Motor
Unknown
Mass
Unknown
Launch date (UTC)
2022-11-11 (4 years ago)
Launch vehicle
Unknown
Launch site
Taiyaun Space Center, China (TSC)
Object type
Payload
Rocket body
Debris
Shape & HBR
Unknown shape, 0.1 m
Radar Cross Section
Small (<0.1 m²)

Expand to show TLE details & history
Last TLE update: 3 days ago

TLE from 3 days ago
0 CZ-6A DEB
1 54988U 22151UD  26170.89087327  .00003880  00000-0  85208-3 0  9990
2 54988  99.1236 295.3118 0068997  14.8586 345.4615 14.56756077188593
Epoch: 2026-06-19T21:22Z
TLE epoch observation values (Epoch: 2026-06-19T21:22:51.450Z)
Latitude
-0.00009°
Longitude
66.48409°
Altitude
659.333 km
Speed
7.553 km/s
True Right ascension
19h 41m 14s
True Declination
0° 00' 00"
Sunlit
Object was in full shadow at epoch
Visualization orbit readout
Latitude
Unknown
Longitude
Unknown
Altitude
Unknown
Speed
Unknown
Apparent Right ascension
Unknown
Apparent Declination
Unknown
Sunlit
N/A
Visualization observer readout
Local Sidereal Time
21:29:33
Azimuth
Unknown
Elevation
Unknown
Doppler factor
Unknown
Orbital elements
Apogee altitude
749.64 km
Perigee altitude
651.955 km
Semi-major axis
7,078.935 km
Eccentricity
0.0069
Inclination
99.1236°
RAAN
295.3118°
Arg. of periapsis
14.8586°
True anomaly
345.26135°
Mean anomaly
345.4615°
Eccentric anomaly
345.36159°
Mean motion
3.64411 °/min
Orbital period
98.79 mins
BSTAR
0.00085208
Loading maneuver chart data...
Computing Atmospheric mass density...
Loading historical data...
Loading historical data...
Loading historical data...
Loading historical data...
Loading historical data...
Loading historical data...
Loading historical data...

Documentation

Showing up to 5 results
|